Year,Month,Day,Hour,Minute,Value (Times are PST for temperature in C)
2009,06,29,00,00,10.80
2009,06,29,00,01,10.80
2009,06,29,00,02,10.80
2009,06,29,00,03,10.80
2009,06,29,00,04,10.80
2009,06,29,00,05,10.80
2009,06,29,00,06,10.70
2009,06,29,00,07,10.70
2009,06,29,00,08,10.70
2009,06,29,00,09,10.70
2009,06,29,00,10,10.70
2009,06,29,00,11,10.70
2009,06,29,00,12,10.60
2009,06,29,00,13,10.60
2009,06,29,00,14,10.60
2009,06,29,00,15,10.60
2009,06,29,00,16,10.60
2009,06,29,00,17,10.60
2009,06,29,00,18,10.50
2009,06,29,00,19,10.50
2009,06,29,00,20,10.50
2009,06,29,00,21,10.50
2009,06,29,00,22,10.50
2009,06,29,00,23,10.40
2009,06,29,00,24,10.40
2009,06,29,00,25,10.40
2009,06,29,00,26,10.40
2009,06,29,00,27,10.40
2009,06,29,00,28,10.40
2009,06,29,00,29,10.50
2009,06,29,00,30,10.50
2009,06,29,00,31,10.50
2009,06,29,00,32,10.50
2009,06,29,00,33,10.50
2009,06,29,00,34,10.50
2009,06,29,00,35,10.50
2009,06,29,00,36,10.60
2009,06,29,00,37,10.60
2009,06,29,00,38,10.60
2009,06,29,00,39,10.60
2009,06,29,00,40,10.60
2009,06,29,00,41,10.60
2009,06,29,00,42,10.60
2009,06,29,00,43,10.50
2009,06,29,00,44,10.50
2009,06,29,00,45,10.50
2009,06,29,00,46,10.50
2009,06,29,00,47,10.40
2009,06,29,00,48,10.40
2009,06,29,00,49,10.40
2009,06,29,00,50,10.40
2009,06,29,00,51,10.40
2009,06,29,00,52,10.40
2009,06,29,00,53,10.40
2009,06,29,00,54,10.40
2009,06,29,00,55,10.30
2009,06,29,00,56,10.30
2009,06,29,00,57,10.20
2009,06,29,00,58,10.20
2009,06,29,00,59,10.20
2009,06,29,01,00,10.20
2009,06,29,01,01,10.10
2009,06,29,01,02,10.10
2009,06,29,01,03,10.10
2009,06,29,01,04,10.10
2009,06,29,01,05,10.10
2009,06,29,01,06,10.10
2009,06,29,01,07,10.00
2009,06,29,01,08,10.00
2009,06,29,01,09,10.00
2009,06,29,01,10,10.00
2009,06,29,01,11,9.90
2009,06,29,01,12,9.90
2009,06,29,01,13,9.90
2009,06,29,01,14,9.90
2009,06,29,01,15,9.90
2009,06,29,01,16,10.00
2009,06,29,01,17,10.00
2009,06,29,01,18,10.00
2009,06,29,01,19,10.00
2009,06,29,01,20,10.00
2009,06,29,01,21,10.00
2009,06,29,01,22,10.10
2009,06,29,01,23,10.10
2009,06,29,01,24,10.10
2009,06,29,01,25,10.10
2009,06,29,01,26,10.10
2009,06,29,01,27,10.10
2009,06,29,01,28,10.10
2009,06,29,01,29,10.10
2009,06,29,01,30,10.00
2009,06,29,01,31,10.00
2009,06,29,01,32,10.00
2009,06,29,01,33,10.00
2009,06,29,01,34,10.00
2009,06,29,01,35,10.00
2009,06,29,01,36,10.00
2009,06,29,01,37,10.00
2009,06,29,01,38,10.00
2009,06,29,01,39,10.00
2009,06,29,01,40,10.00
2009,06,29,01,41,10.00
2009,06,29,01,42,10.00
2009,06,29,01,43,9.90
2009,06,29,01,44,9.90
2009,06,29,01,45,9.90
2009,06,29,01,46,9.90
2009,06,29,01,47,9.90
2009,06,29,01,48,9.90
2009,06,29,01,49,9.90
2009,06,29,01,50,9.90
2009,06,29,01,51,9.90
2009,06,29,01,52,9.90
2009,06,29,01,53,9.90
2009,06,29,01,54,9.90
2009,06,29,01,55,9.90
2009,06,29,01,56,9.80
2009,06,29,01,57,9.80
2009,06,29,01,58,9.90
2009,06,29,01,59,9.80
2009,06,29,02,00,9.80
2009,06,29,02,01,9.80
2009,06,29,02,02,9.80
2009,06,29,02,03,9.80
2009,06,29,02,04,9.80
2009,06,29,02,05,9.80
2009,06,29,02,06,9.80
2009,06,29,02,07,9.80
2009,06,29,02,08,9.80
2009,06,29,02,09,9.80
2009,06,29,02,10,9.80
2009,06,29,02,11,9.80
2009,06,29,02,12,9.80
2009,06,29,02,13,9.80
2009,06,29,02,14,9.70
2009,06,29,02,15,9.70
2009,06,29,02,16,9.70
2009,06,29,02,17,9.70
2009,06,29,02,18,9.70
2009,06,29,02,19,9.60
2009,06,29,02,20,9.60
2009,06,29,02,21,9.60
2009,06,29,02,22,9.60
2009,06,29,02,23,9.60
2009,06,29,02,24,9.50
2009,06,29,02,25,9.50
2009,06,29,02,26,9.50
2009,06,29,02,27,9.50
2009,06,29,02,28,9.40
2009,06,29,02,29,9.40
2009,06,29,02,30,9.40
2009,06,29,02,31,9.40
2009,06,29,02,32,9.40
2009,06,29,02,33,9.40
2009,06,29,02,34,9.40
2009,06,29,02,35,9.40
2009,06,29,02,36,9.40
2009,06,29,02,37,9.40
2009,06,29,02,38,9.40
2009,06,29,02,39,9.40
2009,06,29,02,40,9.40
2009,06,29,02,41,9.40
2009,06,29,02,42,9.30
2009,06,29,02,43,9.30
2009,06,29,02,44,9.30
2009,06,29,02,45,9.30
2009,06,29,02,46,9.30
2009,06,29,02,47,9.30
2009,06,29,02,48,9.30
2009,06,29,02,49,9.30
2009,06,29,02,50,9.30
2009,06,29,02,51,9.20
2009,06,29,02,52,9.20
2009,06,29,02,53,9.20
2009,06,29,02,54,9.20
2009,06,29,02,55,9.20
2009,06,29,02,56,9.20
2009,06,29,02,57,9.20
2009,06,29,02,58,9.10
2009,06,29,02,59,9.10
2009,06,29,03,00,9.10
2009,06,29,03,01,9.10
2009,06,29,03,02,9.10
2009,06,29,03,03,9.10
2009,06,29,03,04,9.10
2009,06,29,03,05,9.10
2009,06,29,03,06,9.00
2009,06,29,03,07,9.00
2009,06,29,03,08,9.00
2009,06,29,03,09,9.00
2009,06,29,03,10,9.00
2009,06,29,03,11,9.00
2009,06,29,03,12,9.00
2009,06,29,03,13,9.00
2009,06,29,03,14,9.00
2009,06,29,03,15,9.00
2009,06,29,03,16,9.00
2009,06,29,03,17,9.00
2009,06,29,03,18,9.00
2009,06,29,03,19,9.00
2009,06,29,03,20,9.00
2009,06,29,03,21,9.00
2009,06,29,03,22,9.00
2009,06,29,03,23,9.00
2009,06,29,03,24,9.00
2009,06,29,03,25,9.00
2009,06,29,03,26,9.00
2009,06,29,03,27,9.00
2009,06,29,03,28,9.00
2009,06,29,03,29,9.00
2009,06,29,03,30,9.00
2009,06,29,03,31,8.90
2009,06,29,03,32,8.90
2009,06,29,03,33,8.90
2009,06,29,03,34,8.90
2009,06,29,03,35,8.90
2009,06,29,03,36,8.90
2009,06,29,03,37,8.80
2009,06,29,03,38,8.80
2009,06,29,03,39,8.80
2009,06,29,03,40,8.80
2009,06,29,03,41,8.80
2009,06,29,03,42,8.80
2009,06,29,03,43,8.70
2009,06,29,03,44,8.70
2009,06,29,03,45,8.70
2009,06,29,03,46,8.70
2009,06,29,03,47,8.70
2009,06,29,03,48,8.70
2009,06,29,03,49,8.70
2009,06,29,03,50,8.60
2009,06,29,03,51,8.60
2009,06,29,03,52,8.60
2009,06,29,03,53,8.60
2009,06,29,03,54,8.60
2009,06,29,03,55,8.60
2009,06,29,03,56,8.60
2009,06,29,03,57,8.60
2009,06,29,03,58,8.50
2009,06,29,03,59,8.50
2009,06,29,04,00,8.50
2009,06,29,04,01,8.50
2009,06,29,04,02,8.50
2009,06,29,04,03,8.40
2009,06,29,04,04,8.40
2009,06,29,04,05,8.40
2009,06,29,04,06,8.40
2009,06,29,04,07,8.40
2009,06,29,04,08,8.40
2009,06,29,04,09,8.40
2009,06,29,04,10,8.40
2009,06,29,04,11,8.40
2009,06,29,04,12,8.40
2009,06,29,04,13,8.40
2009,06,29,04,14,8.40
2009,06,29,04,15,8.30
2009,06,29,04,16,8.30
2009,06,29,04,17,8.30
2009,06,29,04,18,8.30
2009,06,29,04,19,8.30
2009,06,29,04,20,8.30
2009,06,29,04,21,8.30
2009,06,29,04,22,8.30
2009,06,29,04,23,8.30
2009,06,29,04,24,8.30
2009,06,29,04,25,8.30
2009,06,29,04,26,8.30
2009,06,29,04,27,8.30
2009,06,29,04,28,8.30
2009,06,29,04,29,8.20
2009,06,29,04,30,8.20
2009,06,29,04,31,8.20
2009,06,29,04,32,8.20
2009,06,29,04,33,8.20
2009,06,29,04,34,8.20
2009,06,29,04,35,8.20
2009,06,29,04,36,8.20
2009,06,29,04,37,8.20
2009,06,29,04,38,8.20
2009,06,29,04,39,8.20
2009,06,29,04,40,8.20
2009,06,29,04,41,8.20
2009,06,29,04,42,8.20
2009,06,29,04,43,8.20
2009,06,29,04,44,8.20
2009,06,29,04,45,8.10
2009,06,29,04,46,8.10
2009,06,29,04,47,8.10
2009,06,29,04,48,8.10
2009,06,29,04,49,8.10
2009,06,29,04,50,8.10
2009,06,29,04,51,8.10
2009,06,29,04,52,8.10
2009,06,29,04,53,8.10
2009,06,29,04,54,8.00
2009,06,29,04,55,8.00
2009,06,29,04,56,8.00
2009,06,29,04,57,8.00
2009,06,29,04,58,8.00
2009,06,29,04,59,8.00
2009,06,29,05,00,7.90
2009,06,29,05,01,7.90
2009,06,29,05,02,7.90
2009,06,29,05,03,7.90
2009,06,29,05,04,7.90
2009,06,29,05,05,7.90
2009,06,29,05,06,7.90
2009,06,29,05,07,7.90
2009,06,29,05,08,7.90
2009,06,29,05,09,7.90
2009,06,29,05,10,7.90
2009,06,29,05,11,7.90
2009,06,29,05,12,7.90
2009,06,29,05,13,7.90
2009,06,29,05,14,7.90
2009,06,29,05,15,7.90
2009,06,29,05,16,7.90
2009,06,29,05,17,7.80
2009,06,29,05,18,7.80
2009,06,29,05,19,7.80
2009,06,29,05,20,7.80
2009,06,29,05,21,7.80
2009,06,29,05,22,7.80
2009,06,29,05,23,7.80
2009,06,29,05,24,7.80
2009,06,29,05,25,7.80
2009,06,29,05,26,7.80
2009,06,29,05,27,7.70
2009,06,29,05,28,7.70
2009,06,29,05,29,7.70
2009,06,29,05,30,7.70
2009,06,29,05,31,7.70
2009,06,29,05,32,7.70
2009,06,29,05,33,7.70
2009,06,29,05,34,7.70
2009,06,29,05,35,7.70
2009,06,29,05,36,7.70
2009,06,29,05,37,7.70
2009,06,29,05,38,7.70
2009,06,29,05,39,7.70
2009,06,29,05,40,7.70
2009,06,29,05,41,7.70
2009,06,29,05,42,7.70
2009,06,29,05,43,7.70
2009,06,29,05,44,7.70
2009,06,29,05,45,7.70
2009,06,29,05,46,7.70
2009,06,29,05,47,7.70
2009,06,29,05,48,7.70
2009,06,29,05,49,7.70
2009,06,29,05,50,7.70
2009,06,29,05,51,7.70
2009,06,29,05,52,7.70
2009,06,29,05,53,7.70
2009,06,29,05,54,7.70
2009,06,29,05,55,7.70
2009,06,29,05,56,7.70
2009,06,29,05,57,7.70
2009,06,29,05,58,7.80
2009,06,29,05,59,7.80
2009,06,29,06,00,7.80
2009,06,29,06,01,7.90
2009,06,29,06,02,7.90
2009,06,29,06,03,7.90
2009,06,29,06,04,7.90
2009,06,29,06,05,8.00
2009,06,29,06,06,8.00
2009,06,29,06,07,8.10
2009,06,29,06,08,8.10
2009,06,29,06,09,8.10
2009,06,29,06,10,8.10
2009,06,29,06,11,8.20
2009,06,29,06,12,8.20
2009,06,29,06,13,8.20
2009,06,29,06,14,8.30
2009,06,29,06,15,8.30
2009,06,29,06,16,8.40
2009,06,29,06,17,8.40
2009,06,29,06,18,8.40
2009,06,29,06,19,8.50
2009,06,29,06,20,8.50
2009,06,29,06,21,8.50
2009,06,29,06,22,8.50
2009,06,29,06,23,8.60
2009,06,29,06,24,8.60
2009,06,29,06,25,8.60
2009,06,29,06,26,8.60
2009,06,29,06,27,8.60
2009,06,29,06,28,8.60
2009,06,29,06,29,8.70
2009,06,29,06,30,8.70
2009,06,29,06,31,8.70
2009,06,29,06,32,8.80
2009,06,29,06,33,8.80
2009,06,29,06,34,8.80
2009,06,29,06,35,8.90
2009,06,29,06,36,8.90
2009,06,29,06,37,8.90
2009,06,29,06,38,9.00
2009,06,29,06,39,9.00
2009,06,29,06,40,9.00
2009,06,29,06,41,9.00
2009,06,29,06,42,9.10
2009,06,29,06,43,9.10
2009,06,29,06,44,9.10
2009,06,29,06,45,9.10
2009,06,29,06,46,9.10
2009,06,29,06,47,9.20
2009,06,29,06,48,9.20
2009,06,29,06,49,9.20
2009,06,29,06,50,9.20
2009,06,29,06,51,9.30
2009,06,29,06,52,9.30
2009,06,29,06,53,9.30
2009,06,29,06,54,9.40
2009,06,29,06,55,9.40
2009,06,29,06,56,9.50
2009,06,29,06,57,9.50
2009,06,29,06,58,9.60
2009,06,29,06,59,9.60
2009,06,29,07,00,9.70
2009,06,29,07,01,9.80
2009,06,29,07,02,9.80
2009,06,29,07,03,9.80
2009,06,29,07,04,9.90
2009,06,29,07,05,9.90
2009,06,29,07,06,9.90
2009,06,29,07,07,10.00
2009,06,29,07,08,10.00
2009,06,29,07,09,10.10
2009,06,29,07,10,10.10
2009,06,29,07,11,10.10
2009,06,29,07,12,10.10
2009,06,29,07,13,10.20
2009,06,29,07,14,10.20
2009,06,29,07,15,10.30
2009,06,29,07,16,10.30
2009,06,29,07,17,10.30
2009,06,29,07,18,10.40
2009,06,29,07,19,10.40
2009,06,29,07,20,10.50
2009,06,29,07,21,10.50
2009,06,29,07,22,10.60
2009,06,29,07,23,10.60
2009,06,29,07,24,10.70
2009,06,29,07,25,10.80
2009,06,29,07,26,10.80
2009,06,29,07,27,10.90
2009,06,29,07,28,11.00
2009,06,29,07,29,11.00
2009,06,29,07,30,11.10
2009,06,29,07,31,11.10
2009,06,29,07,32,11.20
2009,06,29,07,33,11.20
2009,06,29,07,34,11.20
2009,06,29,07,35,11.30
2009,06,29,07,36,11.30
2009,06,29,07,37,11.40
2009,06,29,07,38,11.50
2009,06,29,07,39,11.50
2009,06,29,07,40,11.60
2009,06,29,07,41,11.70
2009,06,29,07,42,11.80
2009,06,29,07,43,11.80
2009,06,29,07,44,11.90
2009,06,29,07,45,12.00
2009,06,29,07,46,12.00
2009,06,29,07,47,12.10
2009,06,29,07,48,12.20
2009,06,29,07,49,12.30
2009,06,29,07,50,12.40
2009,06,29,07,51,12.50
2009,06,29,07,52,12.60
2009,06,29,07,53,12.60
2009,06,29,07,54,12.70
2009,06,29,07,55,12.70
2009,06,29,07,56,12.80
2009,06,29,07,57,12.80
2009,06,29,07,58,12.80
2009,06,29,07,59,12.90
2009,06,29,08,00,12.90
2009,06,29,08,01,13.00
2009,06,29,08,02,13.00
2009,06,29,08,03,13.10
2009,06,29,08,04,13.10
2009,06,29,08,05,13.20
2009,06,29,08,06,13.20
2009,06,29,08,07,13.30
2009,06,29,08,08,13.30
2009,06,29,08,09,13.40
2009,06,29,08,10,13.50
2009,06,29,08,11,13.50
2009,06,29,08,12,13.60
2009,06,29,08,13,13.70
2009,06,29,08,14,13.80
2009,06,29,08,15,13.90
2009,06,29,08,16,14.00
2009,06,29,08,17,14.10
2009,06,29,08,18,14.30
2009,06,29,08,19,14.40
2009,06,29,08,20,14.50
2009,06,29,08,21,14.60
2009,06,29,08,22,14.70
2009,06,29,08,23,14.70
2009,06,29,08,24,14.80
2009,06,29,08,25,14.90
2009,06,29,08,26,15.00
2009,06,29,08,27,15.00
2009,06,29,08,28,15.00
2009,06,29,08,29,15.00
2009,06,29,08,30,15.00
2009,06,29,08,31,15.10
2009,06,29,08,32,15.20
2009,06,29,08,33,15.20
2009,06,29,08,34,15.20
2009,06,29,08,35,15.30
2009,06,29,08,36,15.30
2009,06,29,08,37,15.30
2009,06,29,08,38,15.30
2009,06,29,08,39,15.30
2009,06,29,08,40,15.40
2009,06,29,08,41,15.40
2009,06,29,08,42,15.50
2009,06,29,08,43,15.50
2009,06,29,08,44,15.60
2009,06,29,08,45,15.70
2009,06,29,08,46,15.70
2009,06,29,08,47,15.80
2009,06,29,08,48,15.80
2009,06,29,08,49,15.80
2009,06,29,08,50,15.80
2009,06,29,08,51,15.80
2009,06,29,08,52,15.90
2009,06,29,08,53,15.90
2009,06,29,08,54,16.00
2009,06,29,08,55,16.10
2009,06,29,08,56,16.10
2009,06,29,08,57,16.10
2009,06,29,08,58,16.10
2009,06,29,08,59,16.10
2009,06,29,09,00,16.10
2009,06,29,09,01,16.10
2009,06,29,09,02,16.10
2009,06,29,09,03,16.10
2009,06,29,09,04,16.20
2009,06,29,09,05,16.20
2009,06,29,09,06,16.20
2009,06,29,09,07,16.20
2009,06,29,09,08,16.30
2009,06,29,09,09,16.40
2009,06,29,09,10,16.40
2009,06,29,09,11,16.40
2009,06,29,09,12,16.50
2009,06,29,09,13,16.50
2009,06,29,09,14,16.50
2009,06,29,09,15,16.50
2009,06,29,09,16,16.50
2009,06,29,09,17,16.50
2009,06,29,09,18,16.60
2009,06,29,09,19,16.60
2009,06,29,09,20,16.60
2009,06,29,09,21,16.60
2009,06,29,09,22,16.50
2009,06,29,09,23,16.40
2009,06,29,09,24,16.40
2009,06,29,09,25,16.30
2009,06,29,09,26,16.30
2009,06,29,09,27,16.20
2009,06,29,09,28,16.20
2009,06,29,09,29,16.10
2009,06,29,09,30,16.10
2009,06,29,09,31,16.10
2009,06,29,09,32,16.10
2009,06,29,09,33,16.10
2009,06,29,09,34,16.20
2009,06,29,09,35,16.20
2009,06,29,09,36,16.30
2009,06,29,09,37,16.40
2009,06,29,09,38,16.40
2009,06,29,09,39,16.40
2009,06,29,09,40,16.40
2009,06,29,09,41,16.40
2009,06,29,09,42,16.40
2009,06,29,09,43,16.50
2009,06,29,09,44,16.60
2009,06,29,09,45,16.60
2009,06,29,09,46,16.70
2009,06,29,09,47,16.80
2009,06,29,09,48,16.80
2009,06,29,09,49,16.80
2009,06,29,09,50,16.80
2009,06,29,09,51,16.70
2009,06,29,09,52,16.70
2009,06,29,09,53,16.70
2009,06,29,09,54,16.60
2009,06,29,09,55,16.50
2009,06,29,09,56,16.50
2009,06,29,09,57,16.40
2009,06,29,09,58,16.40
2009,06,29,09,59,16.40
2009,06,29,10,00,16.50
2009,06,29,10,01,16.50
2009,06,29,10,02,16.60
2009,06,29,10,03,16.60
2009,06,29,10,04,16.70
2009,06,29,10,05,16.70
2009,06,29,10,06,16.70
2009,06,29,10,07,16.60
2009,06,29,10,08,16.50
2009,06,29,10,09,16.40
2009,06,29,10,10,16.40
2009,06,29,10,11,16.30
2009,06,29,10,12,16.30
2009,06,29,10,13,16.30
2009,06,29,10,14,16.30
2009,06,29,10,15,16.30
2009,06,29,10,16,16.30
2009,06,29,10,17,16.30
2009,06,29,10,18,16.30
2009,06,29,10,19,16.30
2009,06,29,10,20,16.30
2009,06,29,10,21,16.30
2009,06,29,10,22,16.30
2009,06,29,10,23,16.30
2009,06,29,10,24,16.20
2009,06,29,10,25,16.10
2009,06,29,10,26,16.10
2009,06,29,10,27,16.20
2009,06,29,10,28,16.30
2009,06,29,10,29,16.40
2009,06,29,10,30,16.50
2009,06,29,10,31,16.60
2009,06,29,10,32,16.70
2009,06,29,10,33,16.70
2009,06,29,10,34,16.70
2009,06,29,10,35,16.70
2009,06,29,10,36,16.70
2009,06,29,10,37,16.60
2009,06,29,10,38,16.70
2009,06,29,10,39,16.70
2009,06,29,10,40,16.80
2009,06,29,10,41,16.80
2009,06,29,10,42,16.80
2009,06,29,10,43,16.70
2009,06,29,10,44,16.70
2009,06,29,10,45,16.60
2009,06,29,10,46,16.60
2009,06,29,10,47,16.50
2009,06,29,10,48,16.50
2009,06,29,10,49,16.60
2009,06,29,10,50,16.60
2009,06,29,10,51,16.60
2009,06,29,10,52,16.70
2009,06,29,10,53,16.70
2009,06,29,10,54,16.80
2009,06,29,10,55,16.80
2009,06,29,10,56,16.90
2009,06,29,10,57,16.80
2009,06,29,10,58,16.70
2009,06,29,10,59,16.60
2009,06,29,11,00,16.60
2009,06,29,11,01,16.60
2009,06,29,11,02,16.50
2009,06,29,11,03,16.40
2009,06,29,11,04,16.30
2009,06,29,11,05,16.20
2009,06,29,11,06,16.10
2009,06,29,11,07,16.10
2009,06,29,11,08,16.10
2009,06,29,11,09,16.20
2009,06,29,11,10,16.20
2009,06,29,11,11,16.20
2009,06,29,11,12,16.20
2009,06,29,11,13,16.20
2009,06,29,11,14,16.20
2009,06,29,11,15,16.30
2009,06,29,11,16,16.30
2009,06,29,11,17,16.30
2009,06,29,11,18,16.30
2009,06,29,11,19,16.30
2009,06,29,11,20,16.30
2009,06,29,11,21,16.40
2009,06,29,11,22,16.40
2009,06,29,11,23,16.50
2009,06,29,11,24,16.50
2009,06,29,11,25,16.60
2009,06,29,11,26,16.60
2009,06,29,11,27,16.70
2009,06,29,11,28,16.80
2009,06,29,11,29,16.80
2009,06,29,11,30,16.80
2009,06,29,11,31,16.80
2009,06,29,11,32,16.80
2009,06,29,11,33,16.80
2009,06,29,11,34,16.80
2009,06,29,11,35,16.90
2009,06,29,11,36,17.00
2009,06,29,11,37,17.00
2009,06,29,11,38,17.00
2009,06,29,11,39,17.00
2009,06,29,11,40,16.90
2009,06,29,11,41,16.90
2009,06,29,11,42,16.90
2009,06,29,11,43,17.00
2009,06,29,11,44,17.00
2009,06,29,11,45,17.00
2009,06,29,11,46,17.10
2009,06,29,11,47,17.10
2009,06,29,11,48,17.10
2009,06,29,11,49,17.10
2009,06,29,11,50,17.10
2009,06,29,11,51,17.20
2009,06,29,11,52,17.30
2009,06,29,11,53,17.40
2009,06,29,11,54,17.40
2009,06,29,11,55,17.40
2009,06,29,11,56,17.50
2009,06,29,11,57,17.50
2009,06,29,11,58,17.50
2009,06,29,11,59,17.40
2009,06,29,12,00,17.40
2009,06,29,12,01,17.40
2009,06,29,12,02,17.40
2009,06,29,12,03,17.40
2009,06,29,12,04,17.40
2009,06,29,12,05,17.30
2009,06,29,12,06,17.30
2009,06,29,12,07,17.30
2009,06,29,12,08,17.40
2009,06,29,12,09,17.40
2009,06,29,12,10,17.40
2009,06,29,12,11,17.40
2009,06,29,12,12,17.50
2009,06,29,12,13,17.50
2009,06,29,12,14,17.60
2009,06,29,12,15,17.60
2009,06,29,12,16,17.60
2009,06,29,12,17,17.60
2009,06,29,12,18,17.50
2009,06,29,12,19,17.50
2009,06,29,12,20,17.40
2009,06,29,12,21,17.40
2009,06,29,12,22,17.30
2009,06,29,12,23,17.30
2009,06,29,12,24,17.30
2009,06,29,12,25,17.40
2009,06,29,12,26,17.40
2009,06,29,12,27,17.50
2009,06,29,12,28,17.70
2009,06,29,12,29,17.80
2009,06,29,12,30,17.90
2009,06,29,12,31,18.00
2009,06,29,12,32,18.10
2009,06,29,12,33,18.00
2009,06,29,12,34,17.90
2009,06,29,12,35,17.90
2009,06,29,12,36,17.90
2009,06,29,12,37,17.90
2009,06,29,12,38,17.90
2009,06,29,12,39,17.80
2009,06,29,12,40,17.70
2009,06,29,12,41,17.70
2009,06,29,12,42,17.60
2009,06,29,12,43,17.60
2009,06,29,12,44,17.70
2009,06,29,12,45,17.70
2009,06,29,12,46,17.70
2009,06,29,12,47,17.60
2009,06,29,12,48,17.50
2009,06,29,12,49,17.40
2009,06,29,12,50,17.20
2009,06,29,12,51,17.20
2009,06,29,12,52,17.10
2009,06,29,12,53,17.10
2009,06,29,12,54,17.00
2009,06,29,12,55,17.00
2009,06,29,12,56,17.00
2009,06,29,12,57,17.00
2009,06,29,12,58,17.00
2009,06,29,12,59,17.00
2009,06,29,13,00,17.10
2009,06,29,13,01,17.10
2009,06,29,13,02,17.20
2009,06,29,13,03,17.10
2009,06,29,13,04,17.10
2009,06,29,13,05,17.20
2009,06,29,13,06,17.30
2009,06,29,13,07,17.30
2009,06,29,13,08,17.30
2009,06,29,13,09,17.30
2009,06,29,13,10,17.40
2009,06,29,13,11,17.40
2009,06,29,13,12,17.40
2009,06,29,13,13,17.50
2009,06,29,13,14,17.50
2009,06,29,13,15,17.50
2009,06,29,13,16,17.60
2009,06,29,13,17,17.60
2009,06,29,13,18,17.70
2009,06,29,13,19,17.70
2009,06,29,13,20,17.80
2009,06,29,13,21,17.80
2009,06,29,13,22,17.80
2009,06,29,13,23,17.90
2009,06,29,13,24,18.00
2009,06,29,13,25,18.10
2009,06,29,13,26,18.20
2009,06,29,13,27,18.40
2009,06,29,13,28,18.50
2009,06,29,13,29,18.50
2009,06,29,13,30,18.50
2009,06,29,13,31,18.40
2009,06,29,13,32,18.30
2009,06,29,13,33,18.20
2009,06,29,13,34,18.20
2009,06,29,13,35,18.20
2009,06,29,13,36,18.20
2009,06,29,13,37,18.20
2009,06,29,13,38,18.30
2009,06,29,13,39,18.40
2009,06,29,13,40,18.50
2009,06,29,13,41,18.50
2009,06,29,13,42,18.50
2009,06,29,13,43,18.40
2009,06,29,13,44,18.30
2009,06,29,13,45,18.20
2009,06,29,13,46,18.10
2009,06,29,13,47,18.10
2009,06,29,13,48,18.10
2009,06,29,13,49,18.00
2009,06,29,13,50,17.90
2009,06,29,13,51,17.90
2009,06,29,13,52,17.80
2009,06,29,13,53,17.70
2009,06,29,13,54,17.60
2009,06,29,13,55,17.50
2009,06,29,13,56,17.40
2009,06,29,13,57,17.40
2009,06,29,13,58,17.40
2009,06,29,13,59,17.40
2009,06,29,14,00,17.40
2009,06,29,14,01,17.50
2009,06,29,14,02,17.60
2009,06,29,14,03,17.70
2009,06,29,14,04,17.70
2009,06,29,14,05,17.80
2009,06,29,14,06,17.80
2009,06,29,14,07,17.80
2009,06,29,14,08,17.80
2009,06,29,14,09,17.90
2009,06,29,14,10,17.90
2009,06,29,14,11,18.00
2009,06,29,14,12,18.10
2009,06,29,14,13,18.10
2009,06,29,14,14,18.10
2009,06,29,14,15,18.10
2009,06,29,14,16,18.00
2009,06,29,14,17,18.00
2009,06,29,14,18,18.00
2009,06,29,14,19,17.90
2009,06,29,14,20,17.90
2009,06,29,14,21,17.90
2009,06,29,14,22,17.90
2009,06,29,14,23,17.90
2009,06,29,14,24,18.00
2009,06,29,14,25,18.00
2009,06,29,14,26,18.10
2009,06,29,14,27,18.10
2009,06,29,14,28,18.10
2009,06,29,14,29,18.10
2009,06,29,14,30,18.10
2009,06,29,14,31,18.10
2009,06,29,14,32,18.10
2009,06,29,14,33,18.10
2009,06,29,14,34,18.10
2009,06,29,14,35,18.20
2009,06,29,14,36,18.20
2009,06,29,14,37,18.20
2009,06,29,14,38,18.20
2009,06,29,14,39,18.20
2009,06,29,14,40,18.20
2009,06,29,14,41,18.20
2009,06,29,14,42,18.20
2009,06,29,14,43,18.30
2009,06,29,14,44,18.30
2009,06,29,14,45,18.30
2009,06,29,14,46,18.40
2009,06,29,14,47,18.60
2009,06,29,14,48,18.60
2009,06,29,14,49,18.70
2009,06,29,14,50,18.80
2009,06,29,14,51,18.90
2009,06,29,14,52,19.00
2009,06,29,14,53,19.10
2009,06,29,14,54,19.10
2009,06,29,14,55,19.10
2009,06,29,14,56,19.10
2009,06,29,14,57,19.10
2009,06,29,14,58,19.10
2009,06,29,14,59,19.00
2009,06,29,15,00,19.00
2009,06,29,15,01,19.00
2009,06,29,15,02,19.10
2009,06,29,15,03,19.10
2009,06,29,15,04,19.10
2009,06,29,15,05,19.20
2009,06,29,15,06,19.30
2009,06,29,15,07,19.40
2009,06,29,15,08,19.50
2009,06,29,15,09,19.50
2009,06,29,15,10,19.60
2009,06,29,15,11,19.60
2009,06,29,15,12,19.60
2009,06,29,15,13,19.60
2009,06,29,15,14,19.60
2009,06,29,15,15,19.60
2009,06,29,15,16,19.70
2009,06,29,15,17,19.80
2009,06,29,15,18,19.80
2009,06,29,15,19,19.80
2009,06,29,15,20,19.90
2009,06,29,15,21,20.00
2009,06,29,15,22,20.10
2009,06,29,15,23,20.20
2009,06,29,15,24,20.30
2009,06,29,15,25,20.40
2009,06,29,15,26,20.50
2009,06,29,15,27,20.50
2009,06,29,15,28,20.60
2009,06,29,15,29,20.70
2009,06,29,15,30,20.90
2009,06,29,15,31,20.90
2009,06,29,15,32,21.00
2009,06,29,15,33,20.80
2009,06,29,15,34,20.60
2009,06,29,15,35,20.40
2009,06,29,15,36,20.20
2009,06,29,15,37,20.10
2009,06,29,15,38,20.00
2009,06,29,15,39,20.00
2009,06,29,15,40,19.90
2009,06,29,15,41,19.90
2009,06,29,15,42,19.80
2009,06,29,15,43,19.70
2009,06,29,15,44,19.60
2009,06,29,15,45,19.50
2009,06,29,15,46,19.40
2009,06,29,15,47,19.30
2009,06,29,15,48,19.20
2009,06,29,15,49,19.20
2009,06,29,15,50,19.10
2009,06,29,15,51,18.90
2009,06,29,15,52,18.80
2009,06,29,15,53,18.80
2009,06,29,15,54,18.80
2009,06,29,15,55,19.00
2009,06,29,15,56,19.10
2009,06,29,15,57,19.20
2009,06,29,15,58,19.20
2009,06,29,15,59,19.10
2009,06,29,16,00,19.10
2009,06,29,16,01,19.20
2009,06,29,16,02,19.30
2009,06,29,16,03,19.50
2009,06,29,16,04,19.60
2009,06,29,16,05,19.70
2009,06,29,16,06,19.90
2009,06,29,16,07,20.00
2009,06,29,16,08,20.00
2009,06,29,16,09,20.00
2009,06,29,16,10,19.80
2009,06,29,16,11,19.70
2009,06,29,16,12,19.60
2009,06,29,16,13,19.40
2009,06,29,16,14,19.20
2009,06,29,16,15,19.10
2009,06,29,16,16,18.90
2009,06,29,16,17,18.90
2009,06,29,16,18,18.80
2009,06,29,16,19,18.70
2009,06,29,16,20,18.70
2009,06,29,16,21,18.60
2009,06,29,16,22,18.60
2009,06,29,16,23,18.60
2009,06,29,16,24,18.70
2009,06,29,16,25,18.70
2009,06,29,16,26,18.60
2009,06,29,16,27,18.50
2009,06,29,16,28,18.40
2009,06,29,16,29,18.40
2009,06,29,16,30,18.40
2009,06,29,16,31,18.50
2009,06,29,16,32,18.60
2009,06,29,16,33,18.80
2009,06,29,16,34,19.00
2009,06,29,16,35,19.10
2009,06,29,16,36,19.30
2009,06,29,16,37,19.40
2009,06,29,16,38,19.40
2009,06,29,16,39,19.40
2009,06,29,16,40,19.40
2009,06,29,16,41,19.50
2009,06,29,16,42,19.50
2009,06,29,16,43,19.60
2009,06,29,16,44,19.60
2009,06,29,16,45,19.60
2009,06,29,16,46,19.60
2009,06,29,16,47,19.50
2009,06,29,16,48,19.40
2009,06,29,16,49,19.40
2009,06,29,16,50,19.30
2009,06,29,16,51,19.20
2009,06,29,16,52,19.20
2009,06,29,16,53,19.10
2009,06,29,16,54,18.90
2009,06,29,16,55,18.80
2009,06,29,16,56,18.70
2009,06,29,16,57,18.60
2009,06,29,16,58,18.50
2009,06,29,16,59,18.40
2009,06,29,17,00,18.30
2009,06,29,17,01,18.40
2009,06,29,17,02,18.40
2009,06,29,17,03,18.40
2009,06,29,17,04,18.40
2009,06,29,17,05,18.40
2009,06,29,17,06,18.40
2009,06,29,17,07,18.50
2009,06,29,17,08,18.50
2009,06,29,17,09,18.60
2009,06,29,17,10,18.60
2009,06,29,17,11,18.60
2009,06,29,17,12,18.70
2009,06,29,17,13,18.80
2009,06,29,17,14,18.80
2009,06,29,17,15,18.90
2009,06,29,17,16,18.90
2009,06,29,17,17,18.90
2009,06,29,17,18,18.90
2009,06,29,17,19,18.90
2009,06,29,17,20,18.90
2009,06,29,17,21,18.90
2009,06,29,17,22,19.00
2009,06,29,17,23,19.00
2009,06,29,17,24,19.10
2009,06,29,17,25,19.10
2009,06,29,17,26,19.20
2009,06,29,17,27,19.30
2009,06,29,17,28,19.40
2009,06,29,17,29,19.40
2009,06,29,17,30,19.50
2009,06,29,17,31,19.60
2009,06,29,17,32,19.80
2009,06,29,17,33,19.90